#timestamp,LO_Frequency,Hit,StdDev 
1592964015.0,286047000.0,N
1592964015.9,286047000.0,N
1592964035.8,286046998.5,N
1592964055.6,286047001.2,N
1592964075.5,286047000.9,N
1592964095.3,286047000.1,N
1592964115.1,286047000.6,N
1592964135.9,286047000.6,N
1592964155.7,286046998.5,N
1592964175.5,286047000.1,N
1592964195.4,286047002.8,N
1592964215.2,286047001.0,N
1592964235.1,286047002.7,N
1592964236.0,286047002.7,N
1592964255.8,286046998.5,N
1592964275.6,286046998.5,N
1592964295.5,286047000.3,N
1592964315.3,286047000.7,N
1592964335.1,286047001.3,N
1592964355.9,286046999.7,N
1592964375.7,286047000.4,N
1592964395.6,286046998.4,N
1592964415.4,286046998.5,N
1592964435.2,286047000.4,N
1592964455.1,286047002.8,N
1592964456.0,286047002.8,N
1592964475.8,286046999.9,N
1592964495.7,286047002.0,N
1592964515.5,286047003.9,N
1592964535.3,286047003.7,N
1592964555.2,286047005.4,Y
1592964575.0,286047001.5,P
1592964575.9,286047001.5,P
1592964595.8,286047002.6,P
1592964615.6,286047000.1,N
1592964635.4,286047002.7,Y
1592964655.3,286046999.1,P
1592964675.1,286046998.6,N
1592964695.8,286046999.0,N
1592964715.7,286046996.5,Y
1592964735.5,286047003.5,P
1592964755.4,286047002.1,N
1592964775.2,286046998.6,N
1592964795.0,286047000.3,N
1592964795.9,286047000.3,N
1592964815.8,286046999.8,N
1592964835.6,286047002.1,N
1592964855.5,286047002.1,N
1592964875.3,286046999.9,N
1592964925.2,286046999.5,E
1592964935.1,286047011.9,N
1592964936.0,286047000.9,P
1592964955.8,286047000.5,N
1592964975.7,286046998.6,N
1592964995.5,286046998.2,N
1592965015.3,286047000.2,N
1592965035.2,286047002.4,N
1592965055.0,286047002.3,N
1592965055.9,286047002.3,N
1592965075.8,286047000.0,N
1592965095.6,286047002.3,N
1592965115.4,286047004.2,N
1592965135.3,286047008.4,N
1592965155.1,286047009.5,N
1592965175.9,286047008.8,N
1592965195.7,286047007.1,N
1592965215.5,286047008.3,N
1592965235.4,286047008.1,N
1592965255.2,286047006.8,N
1592965275.0,286047007.6,N
1592965275.9,286047007.6,N
1592965295.8,286047012.3,Y
1592965315.6,286047005.0,P
1592965335.5,286047006.5,P
1592965355.3,286047006.8,P
1592965375.1,286047005.1,Y
1592965395.9,286046998.9,P
1592965415.7,286047001.2,N
1592965435.6,286047000.2,N
1592965455.4,286046999.8,N
1592965475.2,286047000.4,N
1592965495.1,286047004.4,N
1592965496.0,286047004.4,N
1592965515.8,286047000.3,N
1592965535.7,286047001.1,N
1592965555.5,286046996.8,N
1592965575.4,286047000.8,N
1592965595.2,286047003.8,N
1592965615.0,286047007.6,Y
1592965615.9,286047007.6,P
1592965635.8,286047005.2,N
1592965655.6,286047006.0,N
1592965675.5,286047003.3,N
1592965695.3,286047003.7,N
1592965715.1,286047003.9,N
1592965735.9,286047003.5,N
1592965755.7,286047002.0,N
1592965775.5,286047005.4,N
1592965795.4,286047007.6,Y
1592965815.2,286046996.9,P
1592965835.1,286046996.5,N
1592965836.0,286046996.5,N
1592965855.8,286046996.9,N
1592965875.1,286046997.4,N
1592965895.9,286046999.3,N
1592965915.7,286046998.3,N
1592965935.6,286046996.6,N
1592965955.4,286046999.3,N
1592965975.2,286046997.0,N
1592965995.1,286046998.8,N
1592965996.0,286046998.8,N
1592966015.8,286046997.0,N
1592966035.7,286046997.2,N
1592966055.5,286046993.9,Y
1592966075.1,286046996.7,P
1592966095.9,286046999.3,N
1592966115.7,286047002.7,N
1592966135.6,286046997.0,N
1592966155.4,286046998.2,N
1592966175.2,286046997.2,N
1592966195.1,286046996.6,N
1592966196.0,286046996.6,N
1592966215.8,286046999.4,N
1592966235.7,286046997.7,N
1592966255.5,286046996.4,N
1592966275.3,286046996.1,N
1592966295.2,286046997.9,N
1592966315.0,286046997.3,N
1592966315.9,286046997.3,N
1592966335.8,286047000.8,N
1592966355.6,286046997.5,N
1592966375.4,286046997.6,N
1592966395.3,286046996.8,N
1592966415.1,286047000.3,N
1592966435.8,286046997.9,N
1592966455.7,286046993.8,Y
1592966475.5,286046997.1,P
1592966495.4,286046997.6,P
1592966515.2,286046995.0,P
1592966535.0,286046997.1,N
1592966535.9,286046997.1,N
1592966555.8,286046996.6,Y
1592966575.6,286046998.3,P
1592966595.5,286046999.5,N
1592966615.3,286046996.5,P
1592966635.1,286046997.7,N
1592966655.9,286046997.9,N
1592966675.7,286046997.7,N
1592966695.6,286046995.5,Y
1592966715.4,286046998.5,P
1592966735.2,286046999.0,N
1592966755.1,286046996.5,P
1592966756.0,286046996.5,Y
1592966775.8,286047002.7,P
1592966795.7,286047002.0,N
1592966815.5,286047002.9,N
1592966835.3,286047003.6,N
1592966855.2,286047001.3,N
1592966875.0,286047002.3,N
1592966875.9,286047002.3,N
1592966895.7,286047002.6,N
1592966915.6,286047000.5,N
1592966935.4,286047001.8,N
1592966955.3,286047000.3,N
1592966975.1,286047001.2,N
1592966995.9,286047000.9,N
1592967015.7,286047000.8,N
1592967035.5,286047002.3,N
1592967055.4,286047002.3,N
1592967075.2,286047001.1,N
1592967095.1,286047001.0,N
1592967096.0,286047001.0,N
1592967115.8,286047000.2,N
1592967135.6,286047002.8,N
1592967155.5,286046999.9,N
1592967175.3,286046998.2,N
1592967195.1,286047002.3,N
1592967215.9,286047002.4,N
1592967235.7,286047000.5,N
1592967255.6,286047004.4,Y
1592967275.4,286047000.7,P
1592967295.2,286047000.6,N
1592967315.1,286046998.8,P
1592967316.0,286046998.8,N
1592967335.8,286047001.1,N
1592967355.7,286046998.4,N
1592967375.5,286046998.5,N
1592967395.3,286046998.9,N
1592967415.2,286046999.8,N
1592967435.0,286047002.7,N
1592967435.9,286047002.7,N
1592967455.8,286046998.1,N
1592967475.6,286046998.9,N
1592967495.4,286047002.1,N
1592967515.3,286046998.1,N
1592967535.1,286047001.1,N
1592967555.8,286047000.5,N
1592967575.7,286047000.9,N
1592967595.5,286046998.7,N
